Change the Weather History Date:

Tuesday, January 14, 2014

  Actual Average (KGSP) Record (KGSP)
Temperature  
Mean Temperature 53 °F 42 °F  
Max Temperature 62 °F 52 °F 82 °F (1911)
Min Temperature 44 °F 32 °F 8 °F (1893)
Degree Days  
Heating Degree Days 12 23  
Month to date heating degree days 322  
Since 1 July heating degree days 1525  
Cooling Degree Days 0 0  
Month to date cooling degree days 0  
Year to date cooling degree days 0  
Growing Degree Days 3 (Base 50)    
Moisture  
Dew Point 36 °F    
Average Humidity 53    
Maximum Humidity 94    
Minimum Humidity 27    
Precipitation  
Precipitation 0.06 in 0.13 in 3.05 in (1995)
Month to date precipitation 1.74  
Year to date precipitation 1.74  
Snow  
Snow 0.00 in 0.10 in 4.50 in (1912)
Month to date snowfall 1.0  
Since 1 July snowfall 1.5  
Snow Depth -    
Sea Level Pressure  
Sea Level Pressure 29.90 in    
Wind  
Wind Speed 2 mph (WSW)    
Max Wind Speed 9 mph    
Max Gust Speed -    
Visibility 7 miles    
Events Rain    
T = Trace of Precipitation, MM = Missing Value Source: NWS Daily Summary

Daily Weather History Graph

Daily Weather History Graph

Search for Another Location

Airport or City:

Trip Planner

Search our weather history database for the weather conditions in past years. The results will help you decide how hot, cold, wet, or windy it might be!

Date:

Astronomy

Jan. 14, 2014 Rise Set
Actual Time 7:34 AM EST 5:39 PM EST
Civil Twilight 7:07 AM EST 6:07 PM EST
Nautical Twilight 6:36 AM EST 6:37 PM EST
Astronomical Twilight 6:05 AM EST 7:08 PM EST
Moon 4:42 PM EST (1/14) 6:09 AM EST (1/14)
Length of Visible Light 11h 00m
Length of Day
10h 05m
Waxing Gibbous, 98% of the Moon is Illuminated
Jan 14
Waxing Gibbous
Jan 15
Full
Jan 24
Last Quarter
Jan 30
New
Feb 6
First Quarter

Hourly Weather History & Observations

Time (EST) Temp. Windchill Dew Point Humidity Pressure Visibility Wind Dir Wind Speed Gust Speed Precip Events Conditions
12:15 AM 46.4 °F - - N/A% 29.93 in 5.0 mi Calm Calm - N/A   Light Drizzle
12:35 AM 46.4 °F - - N/A% 29.91 in 4.0 mi Calm Calm - 0.01 in   Drizzle
12:55 AM 46.4 °F 45.2 °F - N/A% 29.91 in 7.0 mi NNW 3.5 mph - 0.01 in   Overcast
1:15 AM 46.4 °F 45.2 °F - N/A% 29.91 in 4.0 mi NNW 3.5 mph - N/A   Haze
1:35 AM 46.4 °F - - N/A% 29.90 in 5.0 mi Calm Calm - N/A   Light Drizzle
1:55 AM 46.4 °F - - N/A% 29.90 in 3.0 mi Calm Calm - N/A   Light Drizzle
2:15 AM 46.4 °F - - N/A% 29.90 in 3.0 mi Calm Calm - 0.01 in   Drizzle
2:35 AM 46.4 °F - - N/A% 29.88 in 2.5 mi Calm Calm - 0.01 in   Drizzle
2:55 AM 46.4 °F - - N/A% 29.88 in 3.0 mi Calm Calm - 0.01 in   Light Drizzle
3:15 AM 46.4 °F 45.2 °F - N/A% 29.86 in 4.0 mi East 3.5 mph - N/A   Haze
3:35 AM 46.4 °F 45.2 °F - N/A% 29.85 in 2.5 mi East 3.5 mph - 0.01 in   Light Drizzle
3:55 AM 46.4 °F 45.2 °F - N/A% 29.85 in 2.0 mi East 3.5 mph - 0.01 in   Overcast
4:15 AM 46.4 °F - - N/A% 29.84 in 2.5 mi Calm Calm - N/A   Overcast
4:35 AM 46.4 °F - - N/A% 29.84 in 2.0 mi Calm Calm - N/A   Overcast
4:55 AM 46.4 °F - - N/A% 29.83 in 2.0 mi Calm Calm - N/A   Overcast
5:15 AM 46.4 °F - - N/A% 29.83 in 2.5 mi Calm Calm - 0.01 in   Overcast
5:35 AM 46.4 °F - - N/A% 29.83 in 3.0 mi Calm Calm - 0.01 in   Overcast
5:55 AM 46.4 °F - - N/A% 29.83 in 1.8 mi Calm Calm - 0.01 in   Heavy Drizzle
6:15 AM 46.4 °F - - N/A% 29.83 in 2.5 mi Calm Calm - N/A   Overcast
6:35 AM 46.4 °F - - N/A% 29.82 in 1.5 mi Calm Calm - N/A Rain Heavy Rain
6:55 AM 46.4 °F - - N/A% 29.83 in 1.8 mi Calm Calm - 0.01 in Rain Rain
7:15 AM 46.4 °F - - N/A% 29.82 in 3.0 mi Calm Calm - 0.01 in   Light Drizzle
7:35 AM 46.4 °F - - N/A% 29.83 in 2.5 mi Calm Calm - 0.01 in   Overcast
7:55 AM 46.4 °F - - N/A% 29.84 in 1.8 mi Calm Calm - 0.01 in   Overcast
8:15 AM 46.4 °F 45.2 °F - N/A% 29.85 in 3.0 mi West 3.5 mph - N/A   Overcast
8:35 AM 46.4 °F - - N/A% 29.84 in 2.0 mi Calm Calm - N/A   Overcast
8:55 AM 48.2 °F - - N/A% 29.84 in 1.5 mi WNW 3.5 mph - N/A   Overcast
9:15 AM 48.2 °F - - N/A% 29.81 in 0.8 mi NNW 6.9 mph - N/A   Overcast
9:35 AM 50.0 °F - - N/A% 29.85 in 1.5 mi Calm Calm - N/A   Overcast
9:55 AM 50.0 °F - - N/A% 29.87 in 5.0 mi West 4.6 mph - N/A   Haze
10:15 AM 50.0 °F - - N/A% 29.87 in 10.0 mi SW 3.5 mph - N/A   Overcast
10:35 AM 50.0 °F - - N/A% 29.88 in 10.0 mi WNW 3.5 mph - N/A   Overcast
10:55 AM 50.0 °F - - N/A% 29.89 in 10.0 mi WSW 3.5 mph - N/A   Overcast
11:15 AM 51.8 °F - - N/A% 29.90 in 10.0 mi WSW 8.1 mph - N/A   Overcast
11:35 AM 51.8 °F - - N/A% 29.91 in 10.0 mi West 6.9 mph - N/A   Overcast
11:55 AM 51.8 °F - 50.0 °F 94% 29.91 in 10.0 mi West 9.2 mph - N/A   Mostly Cloudy
12:15 PM 53.6 °F - 50.0 °F 88% 29.90 in 10.0 mi West 5.8 mph - N/A   Scattered Clouds
12:35 PM 55.4 °F - 48.2 °F 77% 29.88 in 10.0 mi West 4.6 mph - N/A   Scattered Clouds
12:55 PM 57.2 °F - 46.4 °F 67% 29.88 in 10.0 mi West 9.2 mph - N/A   Scattered Clouds
1:15 PM 57.2 °F - 46.4 °F 67% 29.88 in 10.0 mi West 6.9 mph - N/A   Scattered Clouds
1:35 PM 60.8 °F - 44.6 °F 55% 29.88 in 10.0 mi West 6.9 mph - N/A   Mostly Cloudy
1:55 PM 59.0 °F - 42.8 °F 55% 29.88 in 10.0 mi WNW 6.9 mph - N/A   Scattered Clouds
2:15 PM 60.8 °F - 42.8 °F 52% 29.88 in 10.0 mi Calm Calm - N/A   Scattered Clouds
2:35 PM 62.6 °F - 41.0 °F 45% 29.88 in 10.0 mi West 9.2 mph - N/A   Mostly Cloudy
2:55 PM 60.8 °F - 41.0 °F 48% 29.88 in 10.0 mi Calm Calm - N/A   Scattered Clouds
3:15 PM 62.6 °F - 37.4 °F 39% 29.88 in 10.0 mi Calm Calm - N/A   Scattered Clouds
3:35 PM 62.6 °F - 33.8 °F 34% 29.88 in 10.0 mi SW 5.8 mph - N/A   Clear
3:55 PM 62.6 °F - 32.0 °F 32% 29.89 in 10.0 mi WSW 6.9 mph - N/A   Clear
4:15 PM 62.6 °F - 28.4 °F 27% 29.90 in 10.0 mi West 8.1 mph - N/A   Clear
4:35 PM 60.8 °F - 28.4 °F 29% 29.90 in 10.0 mi SW 6.9 mph - N/A   Clear
4:55 PM 60.8 °F - 32.0 °F 34% 29.91 in 10.0 mi SW 5.8 mph - N/A   Clear
5:15 PM 59.0 °F - 33.8 °F 39% 29.92 in 10.0 mi SW 6.9 mph - N/A   Clear
5:35 PM 57.2 °F - 35.6 °F 44% 29.93 in 10.0 mi SW 5.8 mph - N/A   Clear
5:55 PM 55.4 °F - 33.8 °F 44% 29.93 in 10.0 mi Calm Calm - N/A   Clear
6:15 PM 55.4 °F - 32.0 °F 41% 29.93 in 10.0 mi WSW 4.6 mph - N/A   Clear
6:35 PM 51.8 °F - 35.6 °F 54% 29.95 in 10.0 mi SSW 3.5 mph - N/A   Clear
6:55 PM 51.8 °F - 33.8 °F 50% 29.96 in 10.0 mi WSW 5.8 mph - N/A   Clear
7:15 PM 50.0 °F - 33.8 °F 54% 29.96 in 10.0 mi SW 3.5 mph - N/A   Clear
7:35 PM 51.8 °F - 32.0 °F 47% 29.97 in 10.0 mi WSW 4.6 mph - N/A   Clear
7:55 PM 50.0 °F - 32.0 °F 50% 29.97 in 10.0 mi Calm Calm - N/A   Clear
8:15 PM 46.4 °F - 33.8 °F 62% 29.97 in 10.0 mi Calm Calm - N/A   Clear
8:35 PM 46.4 °F 44.3 °F 33.8 °F 62% 29.98 in 10.0 mi SSW 4.6 mph - N/A   Clear
8:55 PM 46.4 °F 44.3 °F 32.0 °F 57% 29.98 in 10.0 mi SW 4.6 mph - N/A   Clear
9:35 PM 46.4 °F 45.2 °F 32.0 °F 57% 29.98 in 10.0 mi WSW 3.5 mph - N/A   Clear
9:55 PM 44.6 °F 42.2 °F 32.0 °F 61% 29.98 in 10.0 mi SW 4.6 mph - N/A   Clear
10:15 PM 44.6 °F 42.2 °F 32.0 °F 61% 29.98 in 10.0 mi WSW 4.6 mph - N/A   Clear
10:35 PM 46.4 °F 42.9 °F 32.0 °F 57% 29.98 in 10.0 mi West 6.9 mph - N/A   Clear
10:55 PM 46.4 °F 43.5 °F 32.0 °F 57% 29.97 in 10.0 mi WSW 5.8 mph - N/A   Clear
11:15 PM 44.6 °F 43.1 °F 32.0 °F 61% 29.97 in 10.0 mi WSW 3.5 mph - N/A   Clear
11:35 PM 44.6 °F 41.4 °F 32.0 °F 61% 29.97 in 10.0 mi WSW 5.8 mph - N/A   Clear
11:55 PM 44.6 °F 41.4 °F 32.0 °F 61% 29.97 in 10.0 mi West 5.8 mph - N/A   Clear